Weather Roundup
Issued by NWS Springfield, MO

Home | Current Version | Previous Version | Text Only | Print | Product List | Glossary On
Versions: 1 2 3 4 5 6 7 8 9 10 11 12 13 14 15 16 17 18 19 20 21 22 23 24 25 26 27 28 29 30 31 32 33 34 35 36 37 38 39 40 41 42 43 44 45 46 47 48 49 50
712
NZUS99 KSGF 262157
HRRSGF

HOURLY WEATHER
NATIONAL WEATHER SERVICE SPRINGFIELD MO
500 PM CDT THU MAY 26 2016

......SGF CWA......

CITY           SKY/WX    TMP DP  RH WIND       PRES   REMARKS
SPRINGFIELD    CLOUDY    84  69  60 S16       29.82F
JOPLIN         SUNNY     84  73  69 S20G25    29.79F HX  90
WEST PLAINS    MOSUNNY   82  69  64 S13G21    29.90F
ROLLA          SUNNY     82  68  62 SE14      29.84F
BRANSON        CLOUDY    77  70  78 S14       29.91R

......SURROUNDING SGF CWA......

CITY           SKY/WX    TMP DP  RH WIND       PRES   REMARKS
CHANUTE        MOSUNNY   83  72  69 S13       29.76S
PARSONS        MOSUNNY   82  74  76 S14G24    29.78S
COFFEYVILLE    PTSUNNY   83  74  74 S22G29    29.77R
EMPORIA        TSTM      70  63  78 W3        29.73F
HARRISON AR    CLOUDY    76  69  79 S9        29.91R

......KANSAS AND MISSOURI......

CITY           SKY/WX    TMP DP  RH WIND       PRES   REMARKS
KANSAS CTY INT TSTM      63  61  93 NE26G39   29.79F
SEDALIA        CLOUDY    81  68  64 E8        29.80F
ST JOSEPH      TSTM      65  59  81 SE14      29.80F
ST LOUIS       MOSUNNY   81  66  60 S13       29.88F
WICHITA        CLOUDY    82  73  74 E8        29.69F THUNDER
TOPEKA         TSTM      62  60  93 N20G38    29.78F FOG
OLATHE         CLOUDY    78  71  79 SE6       29.77F

......TENNESSEE......

CITY           SKY/WX    TMP DP  RH WIND       PRES   REMARKS
MEMPHIS        PTSUNNY   88  70  55 S10G20    29.93F THUNDER HX  92
NASHVILLE      CLOUDY    74  64  71 N21G38    30.06R SQUALL

......ARKANSAS.......

CITY           SKY/WX    TMP DP  RH WIND       PRES   REMARKS
FAYETTEVILLE   TSTM      62  61  96 S9        29.92R
FT SMITH       PTSUNNY   82  67  60 S17G28    29.85F
LITTLE ROCK    CLOUDY    81  73  76 S8        29.91F

......OKLAHOMA.......

CITY           SKY/WX    TMP DP  RH WIND       PRES   REMARKS
TULSA          PTSUNNY   84  72  67 S17G29    29.75S
PONCA CITY     CLOUDY    86  70  58 S14G25    29.72S HX  90
MCALESTER      CLOUDY    80  70  71 S10G23    29.84F
OKLAHOMA CITY  MOSUNNY   85  65  51 S23G36    29.73F

......IOWA............

CITY           SKY/WX    TMP DP  RH WIND       PRES   REMARKS
DES MOINES     NOT AVBL
QUAD CITIES    CLOUDY    88  64  44 CALM      29.80F HAZE

......ILLINOIS........

CITY           SKY/WX    TMP DP  RH WIND       PRES   REMARKS
QUINCY         NOT AVBL
CHICAGO        PTSUNNY   82  63  52 SW9       29.83F




USA.gov is the U.S. government's official web portal to all federal, state and local government web resources and services.